GW6108 Weather Reports


Display with metric or nautical units.
time (UTC)temp
F
wind
direction
speed
MPH
gust
MPH
rain 1hr
in
rain 24hr
in
rain mn
in
humidity
%
barometer
mb
20260507170003 52 161 0.0 3.0 0.02 0.03 0.03 92 1014.1
20260507164718 51 182 3.0 5.0 0.03 0.03 0.03 92 1014.1
20260507163003 50 172 4.0 6.0 0.03 0.03 0.03 89 1014.2
20260507161503 50 200 6.0 9.0 0.03 0.03 0.03 86 1014.3
20260507160003 51 228 7.0 15.0 0.01 0.01 0.01 84 1014.4
20260507154503 53 259 10.0 14.0 0.00 0.00 0.00 75 1014.3
20260507153003 56 264 3.0 8.0 0.00 0.00 0.00 63 1014.0
20260507151503 56 284 2.0 5.0 0.00 0.00 0.00 62 1013.9
20260507150218 56 181 6.0 13.0 0.00 0.00 0.00 59 1013.9
20260507144503 57 128 4.0 9.0 0.00 0.00 0.00 63 1013.9
20260507143003 57 123 5.0 17.0 0.00 0.00 0.00 61 1014.0
20260507141503 57 192 7.0 18.0 0.00 0.00 0.00 61 1014.2
20260507140003 58 195 6.0 19.0 0.00 0.00 0.00 59 1014.3
20260507134503 58 134 4.0 12.0 0.00 0.00 0.00 62 1014.2
20260507133003 59 179 6.0 14.0 0.00 0.00 0.00 61 1014.3
20260507131503 59 119 4.0 12.0 0.00 0.00 0.00 66 1014.3
20260507130003 58 154 4.0 12.0 0.00 0.00 0.00 63 1014.5
20260507124503 58 199 5.0 18.0 0.00 0.00 0.00 63 1014.5
20260507123003 57 189 6.0 12.0 0.00 0.00 0.00 61 1014.7
20260507121503 59 127 5.0 13.0 0.00 0.00 0.00 64 1014.6
20260507120003 59 143 3.0 11.0 0.00 0.00 0.00 58 1014.6
20260507114503 59 127 6.0 13.0 0.00 0.00 0.00 59 1014.7
20260507113219 58 137 5.0 13.0 0.00 0.00 0.00 67 1014.9
20260507111503 57 140 3.0 9.0 0.00 0.00 0.00 66 1015.0
20260507110003 54 192 6.0 11.0 0.00 0.00 0.00 75 1015.2
20260507104503 53 179 3.0 9.0 0.00 0.00 0.00 75 1015.3
20260507103003 52 2 2.0 8.0 0.00 0.00 0.00 76 1015.3
20260507101503 51 103 3.0 8.0 0.00 0.00 0.00 78 1015.4
20260507100003 51 97 1.0 8.0 0.00 0.00 0.00 79 1015.4
20260507094503 50 212 0.0 9.0 0.00 0.00 0.00 79 1015.4
20260507093003 49 201 4.0 9.0 0.00 0.00 0.00 81 1015.4
20260507091503 49 281 2.0 4.0 0.00 0.00 0.00 84 1015.4
20260507090004 47 92 0.0 3.0 0.00 0.00 0.00 85 1015.5
20260507084719 46 59 1.0 3.0 0.00 0.00 0.00 88 1015.5
20260507083003 46 329 1.0 2.0 0.00 0.00 0.00 89 1015.5
20260507081717 45 262 1.0 3.0 0.00 0.00 0.00 91 1015.5
20260507080003 44 0 0.0 1.0 0.00 0.00 0.00 91 1015.5
20260507074503 44 45 1.0 2.0 0.00 0.00 0.00 92 1015.5
20260507073003 44 37 1.0 2.0 0.00 0.00 0.00 92 1015.5
20260507071716 44 58 2.0 3.0 0.00 0.00 0.00 92 1015.4
20260507070005 43 77 1.0 3.0 0.00 0.00 0.00 92 1015.2
20260507064503 43 67 1.0 6.0 0.00 0.00 0.00 94 1015.1
20260507063003 43 98 1.0 4.0 0.00 0.00 0.00 94 1015.1
20260507061503 43 114 2.0 7.0 0.00 0.00 0.00 94 1015.1
20260507060003 43 98 2.0 5.0 0.00 0.00 0.00 94 1015.1
20260507054503 42 122 2.0 5.0 0.00 0.00 0.00 94 1015.1
20260507053003 42 75 0.0 3.0 0.00 0.00 0.00 94 1015.0
20260507051503 42 119 2.0 6.0 0.00 0.00 0.00 94 1015.1
20260507050003 42 130 2.0 8.0 0.00 0.00 0.00 94 1015.1
20260507044503 42 0 0.0 0.0 0.00 0.00 0.00 92 1015.0
20260507043216 42 69 1.0 4.0 0.00 0.00 0.00 92 1014.9
20260507041715 42 59 2.0 6.0 0.00 0.00 0.00 92 1014.9
20260507040003 43 57 2.0 3.0 0.00 0.00 0.00 92 1014.9
20260507034503 43 86 2.0 6.0 0.00 0.00 0.00 92 1014.9
20260507033003 43 104 1.0 4.0 0.00 0.00 0.00 92 1014.9
20260507031503 43 128 2.0 6.0 0.00 0.00 0.00 91 1015.0
20260507030003 43 130 1.0 3.0 0.00 0.00 0.00 91 1015.0
20260507024717 43 252 0.0 3.0 0.00 0.00 0.00 91 1015.0
20260507023003 43 66 1.0 3.0 0.00 0.00 0.00 89 1015.0
20260507021503 43 77 1.0 4.0 0.00 0.00 0.00 89 1014.9
20260507020003 43 59 2.0 3.0 0.00 0.00 0.00 89 1015.0
20260507014716 43 8 0.0 3.0 0.00 0.00 0.00 88 1015.1
20260507013003 44 0 0.0 0.0 0.00 0.00 0.00 88 1015.1
20260507011503 44 40 1.0 3.0 0.00 0.00 0.00 88 1015.2
20260507010003 44 106 2.0 6.0 0.00 0.00 0.00 88 1015.2
20260507004503 44 117 1.0 5.0 0.00 0.00 0.00 88 1015.2
20260507003003 44 156 3.0 10.0 0.00 0.00 0.00 86 1015.2
20260507001503 44 247 1.0 6.0 0.00 0.00 0.00 85 1015.3
20260507000003 44 353 2.0 5.0 0.00 0.00 0.00 84 1015.2
20260506234503 44 94 2.0 9.0 0.00 0.00 0.00 84 1015.1
20260506233003 45 64 2.0 7.0 0.00 0.00 0.00 82 1015.2
20260506231503 45 92 3.0 10.0 0.00 0.00 0.00 82 1015.0
20260506230003 45 97 4.0 13.0 0.00 0.00 0.00 82 1014.9
20260506224503 45 117 6.0 14.0 0.00 0.00 0.00 82 1014.9
20260506223003 45 121 7.0 15.0 0.00 0.00 0.00 82 1014.8
20260506221503 45 121 6.0 14.0 0.00 0.00 0.00 81 1014.8
20260506220216 46 120 7.0 14.0 0.00 0.00 0.00 79 1014.8
20260506214503 46 116 6.0 14.0 0.00 0.00 0.00 79 1014.6
20260506213003 46 123 7.0 13.0 0.00 0.00 0.00 78 1014.5
20260506211503 46 123 6.0 13.0 0.00 0.00 0.00 78 1014.5
20260506210003 47 119 6.0 12.0 0.00 0.00 0.00 75 1014.4
20260506204503 48 123 5.0 11.0 0.00 0.00 0.00 72 1014.3
20260506203218 48 117 4.0 10.0 0.00 0.00 0.00 70 1014.2
20260506201503 49 111 4.0 9.0 0.00 0.00 0.00 68 1014.1
20260506200219 49 112 5.0 12.0 0.00 0.00 0.00 67 1014.0
20260506194503 49 126 2.0 7.0 0.00 0.00 0.00 67 1013.8
20260506193003 50 118 2.0 6.0 0.00 0.00 0.00 67 1013.7
20260506191503 51 114 1.0 3.0 0.00 0.00 0.00 62 1013.7
20260506190003 52 55 0.0 2.0 0.00 0.00 0.00 61 1013.7
20260506184503 52 80 0.0 3.0 0.00 0.00 0.00 58 1013.6
20260506183003 52 75 3.0 6.0 0.00 0.00 0.00 56 1013.6
20260506181503 53 80 2.0 4.0 0.00 0.00 0.00 56 1013.5
20260506180003 54 68 3.0 7.0 0.00 0.00 0.00 54 1013.6
20260506174503 54 73 3.0 9.0 0.00 0.00 0.00 56 1013.5
20260506173003 54 61 3.0 9.0 0.00 0.00 0.00 51 1013.5
20260506171719 55 70 2.0 5.0 0.00 0.00 0.00 51 1013.4